Simultaneous Nadir Overpasses (SNOs) Predictions

Prediction of SNOs between METOP-A and TERRA Satellite Orbit:

Table of predicted SNOs for the next 14.0 days since TLE Epoch: 12/5/2020
Index Date (METOP-A) Time (METOP-A) Lat,Lon (METOP-A) SZA (METOP-A ) Date (TERRA) Time (TERRA) Lat,Lon (TERRA) SZA (TERRA ) Distance(km) Time Diff (sec)
1 12/06/2020 19:44:44 81.37, -68.09 106.92 12/06/2020 19:45:18 81.37, -68.03 106.94 1.04 34
2 12/06/2020 20:35:24 -81.36, 99.44 73.07 12/06/2020 20:34:45 -81.37, 99.51 73.07 1.33 39
3 12/09/2020 15:19:05 81.37, -1.68 107.17 12/09/2020 15:19:31 81.36, -1.77 107.16 1.66 26
4 12/09/2020 16:09:45 -81.36, 165.87 72.82 12/09/2020 16:08:58 -81.36, 165.79 72.85 1.42 47
5 12/12/2020 10:53:27 81.37, 64.70 107.35 12/12/2020 10:53:44 81.37, 64.81 107.37 1.86 17
6 12/12/2020 11:44:07 -81.36,-127.71 72.63 12/12/2020 11:43:11 -81.37,-127.60 72.64 1.99 56
7 12/15/2020 06:27:49 81.37, 131.06 107.47 12/15/2020 06:27:58 81.35, 130.95 107.46 2.21 9
8 12/15/2020 07:18:29 -81.36, -61.32 72.51 12/15/2020 07:17:25 -81.35, -61.44 72.55 2.04 64
9 12/18/2020 01:11:31 -81.39, 29.39 72.53 12/18/2020 01:12:45 -81.33, 29.39 72.54 5.77 74
10 12/18/2020 02:02:10 81.37,-162.61 107.53 12/18/2020 02:02:10 81.35,-162.57 107.53 1.35 0



Historial Predications of SNOs between METOP-A and TERRA
